�������l�o���
Date,Time,MP-1(��Sv/h),MP-2(��Sv/h),MP-3(��Sv/h),MP-4(��Sv/h),MP-5(��Sv/h),MP-6(��Sv/h),MP-7(��Sv/h),MP-8(��Sv/h),����,����(m/s),���J
2021/09/30,00:00,0.600,0.893,0.571,1.088,0.778,0.364,0.629,0.588,��쐼,7.5,��
2021/09/30,00:10,0.600,0.893,0.570,1.092,0.779,0.362,0.630,0.589,��,7.6,��
2021/09/30,00:20,0.599,0.893,0.568,1.090,0.780,0.364,0.630,0.589,��,7.5,��
2021/09/30,00:30,0.598,0.892,0.570,1.091,0.779,0.362,0.630,0.589,��,7.9,��
2021/09/30,00:40,0.599,0.891,0.568,1.091,0.779,0.364,0.629,0.590,��,7.7,��
2021/09/30,00:50,0.599,0.892,0.571,1.091,0.780,0.364,0.630,0.587,��,7.3,��
2021/09/30,01:00,0.598,0.893,0.570,1.091,0.780,0.364,0.629,0.589,��,7.9,��
2021/09/30,01:10,0.598,0.893,0.567,1.091,0.780,0.363,0.630,0.589,��,6.7,��
2021/09/30,01:20,0.599,0.895,0.568,1.090,0.779,0.363,0.631,0.588,��,7.3,��
2021/09/30,01:30,0.598,0.895,0.569,1.094,0.781,0.363,0.629,0.587,��,6.3,��
2021/09/30,01:40,0.600,0.892,0.569,1.090,0.779,0.363,0.630,0.589,��쐼,4.6,��
2021/09/30,01:50,0.598,0.893,0.571,1.090,0.779,0.364,0.630,0.590,��,7.0,��
2021/09/30,02:00,0.599,0.894,0.570,1.093,0.780,0.364,0.630,0.589,��,7.0,��
2021/09/30,02:10,0.597,0.891,0.571,1.091,0.780,0.363,0.631,0.590,��,7.5,��
2021/09/30,02:20,0.598,0.891,0.568,1.089,0.779,0.364,0.630,0.587,��,6.8,��
2021/09/30,02:30,0.599,0.893,0.570,1.090,0.779,0.364,0.629,0.590,��,6.5,��
2021/09/30,02:40,0.598,0.890,0.569,1.091,0.780,0.364,0.630,0.589,��쐼,5.9,��
2021/09/30,02:50,0.598,0.891,0.570,1.091,0.779,0.363,0.631,0.591,��,5.6,��
2021/09/30,03:00,0.600,0.894,0.570,1.090,0.781,0.365,0.631,0.588,��,6.5,��
2021/09/30,03:10,0.599,0.892,0.568,1.090,0.779,0.362,0.630,0.589,��,7.3,��
2021/09/30,03:20,0.599,0.890,0.570,1.089,0.779,0.362,0.630,0.588,��,7.1,��
2021/09/30,03:30,0.599,0.892,0.569,1.091,0.780,0.363,0.630,0.589,��,7.3,��
2021/09/30,03:40,0.600,0.889,0.569,1.091,0.778,0.362,0.630,0.589,��,7.2,��
2021/09/30,03:50,0.600,0.890,0.568,1.092,0.779,0.363,0.631,0.588,��,6.1,��
2021/09/30,04:00,0.597,0.893,0.571,1.092,0.780,0.364,0.630,0.589,��,5.1,��
2021/09/30,04:10,0.601,0.890,0.571,1.090,0.780,0.363,0.632,0.589,��,5.2,��
2021/09/30,04:20,0.598,0.891,0.568,1.093,0.779,0.363,0.631,0.590,��,5.5,��
2021/09/30,04:30,0.599,0.893,0.569,1.091,0.778,0.363,0.629,0.588,��,5.4,��
2021/09/30,04:40,0.599,0.890,0.569,1.090,0.777,0.364,0.631,0.588,��,4.2,��
2021/09/30,04:50,0.598,0.893,0.569,1.090,0.777,0.363,0.632,0.589,��,2.3,��
2021/09/30,05:00,0.599,0.892,0.569,1.091,0.778,0.363,0.632,0.591,��쐼,0.8,��
2021/09/30,05:10,0.599,0.892,0.570,1.091,0.779,0.363,0.630,0.589,��,2.6,��
2021/09/30,05:20,0.601,0.891,0.570,1.092,0.780,0.363,0.630,0.590,��,5.7,��
2021/09/30,05:30,0.599,0.890,0.568,1.090,0.777,0.362,0.631,0.590,��,6.6,��
2021/09/30,05:40,0.599,0.892,0.570,1.091,0.776,0.364,0.629,0.588,��,7.7,��
2021/09/30,05:50,0.600,0.892,0.570,1.090,0.779,0.364,0.630,0.590,��,7.7,��
2021/09/30,06:00,0.597,0.892,0.569,1.090,0.779,0.364,0.630,0.590,��,7.0,��
2021/09/30,06:10,0.597,0.892,0.568,1.091,0.778,0.363,0.631,0.589,��,7.2,��
2021/09/30,06:20,0.599,0.890,0.569,1.090,0.779,0.364,0.629,0.590,��,6.2,��
2021/09/30,06:30,0.598,0.891,0.569,1.092,0.780,0.362,0.631,0.590,��,6.4,��
2021/09/30,06:40,0.600,0.893,0.570,1.092,0.779,0.364,0.631,0.589,��,5.9,��
2021/09/30,06:50,0.598,0.892,0.569,1.093,0.779,0.363,0.632,0.590,��,6.5,��
2021/09/30,07:00,0.599,0.892,0.572,1.092,0.779,0.363,0.632,0.590,��,5.7,��
2021/09/30,07:10,0.599,0.892,0.570,1.094,0.777,0.363,0.631,0.590,��,4.8,��
2021/09/30,07:20,0.599,0.891,0.569,1.091,0.779,0.364,0.631,0.590,��,4.3,��
2021/09/30,07:30,0.600,0.890,0.569,1.090,0.779,0.363,0.632,0.592,��,4.4,��
2021/09/30,07:40,0.598,0.889,0.570,1.092,0.781,0.363,0.632,0.589,��,4.4,��
2021/09/30,07:50,0.598,0.888,0.569,1.092,0.779,0.363,0.632,0.591,��,3.0,��
2021/09/30,08:00,0.600,0.890,0.568,1.092,0.780,0.363,0.631,0.590,��,4.2,��
2021/09/30,08:10,0.597,0.891,0.568,1.091,0.778,0.362,0.631,0.590,��,4.5,��
2021/09/30,08:20,0.598,0.891,0.568,1.091,0.778,0.362,0.629,0.591,��쓌,7.9,��
2021/09/30,08:30,0.598,0.890,0.569,1.091,0.778,0.363,0.630,0.589,��쓌,8.5,��
2021/09/30,08:40,0.600,0.889,0.569,1.093,0.780,0.363,0.630,0.590,��쓌,8.4,��
2021/09/30,08:50,0.598,0.890,0.570,1.091,0.778,0.363,0.629,0.590,��쓌,7.6,��
2021/09/30,09:00,0.599,0.890,0.569,1.094,0.778,0.362,0.630,0.588,��쓌,9.6,��
2021/09/30,09:10,0.600,0.890,0.570,1.092,0.778,0.362,0.630,0.588,��,7.7,��
2021/09/30,09:20,0.599,0.889,0.569,1.091,0.779,0.362,0.631,0.588,��,7.7,��
2021/09/30,09:30,0.600,0.892,0.569,1.094,0.779,0.361,0.629,0.587,��,9.4,��
2021/09/30,09:40,0.599,0.890,0.569,1.096,0.780,0.363,0.631,0.589,��,9.0,��
2021/09/30,09:50,0.601,0.892,0.570,1.093,0.780,0.362,0.629,0.588,��쓌,10.2,��
2021/09/30,10:00,0.599,0.893,0.569,1.093,0.782,0.365,0.631,0.587,��쓌,9.2,��
2021/09/30,10:10,0.601,0.891,0.570,1.094,0.779,0.363,0.630,0.590,��쓌,9.5,��
2021/09/30,10:20,0.601,0.890,0.570,1.091,0.781,0.363,0.629,0.587,��쓌,9.4,��
2021/09/30,10:30,0.599,0.891,0.572,1.094,0.781,0.363,0.632,0.588,��쓌,10.7,��
2021/09/30,10:40,0.601,0.893,0.570,1.094,0.780,0.363,0.630,0.588,��쓌,12.0,��
2021/09/30,10:50,0.601,0.893,0.570,1.094,0.783,0.364,0.629,0.587,��쓌,12.4,��
2021/09/30,11:00,0.601,0.889,0.571,1.092,0.781,0.365,0.630,0.589,��쓌,13.5,��
2021/09/30,11:10,0.601,0.892,0.570,1.095,0.783,0.364,0.631,0.589,��쓌,13.1,��
2021/09/30,11:20,0.602,0.894,0.571,1.096,0.784,0.365,0.633,0.588,��쓌,10.8,��
2021/09/30,11:30,0.602,0.893,0.570,1.094,0.783,0.365,0.632,0.588,��쓌,11.8,��
2021/09/30,11:40,0.602,0.892,0.571,1.094,0.783,0.365,0.631,0.588,��쓌,11.3,��
2021/09/30,11:50,0.601,0.894,0.572,1.093,0.784,0.365,0.633,0.587,��,12.1,��
2021/09/30,12:00,0.602,0.896,0.573,1.093,0.782,0.365,0.630,0.588,��쓌,12.2,��
2021/09/30,12:10,0.601,0.895,0.571,1.093,0.782,0.365,0.633,0.587,��,12.2,��
2021/09/30,12:20,0.602,0.895,0.571,1.096,0.783,0.365,0.632,0.588,��쓌,11.6,��
2021/09/30,12:30,0.602,0.894,0.573,1.095,0.783,0.366,0.631,0.588,��쓌,11.0,��
2021/09/30,12:40,0.602,0.897,0.572,1.095,0.783,0.368,0.633,0.590,��쓌,8.8,��
2021/09/30,12:50,0.600,0.893,0.571,1.093,0.783,0.367,0.631,0.589,��,10.3,��
2021/09/30,13:00,0.602,0.893,0.569,1.094,0.784,0.367,0.633,0.590,��쓌,11.7,��
2021/09/30,13:10,0.602,0.894,0.571,1.095,0.784,0.367,0.632,0.590,��,12.7,��
2021/09/30,13:20,0.600,0.895,0.571,1.095,0.782,0.366,0.631,0.589,��쓌,12.0,��
2021/09/30,13:30,0.602,0.894,0.571,1.096,0.784,0.366,0.632,0.588,��,11.3,��
2021/09/30,13:40,0.601,0.894,0.573,1.095,0.785,0.366,0.630,0.589,��쓌,13.5,��
2021/09/30,13:50,0.601,0.895,0.573,1.095,0.784,0.367,0.631,0.590,��,12.2,��
2021/09/30,14:00,0.604,0.895,0.574,1.098,0.785,0.366,0.633,0.588,��,12.0,��
2021/09/30,14:10,0.602,0.894,0.574,1.095,0.784,0.366,0.631,0.589,��,9.7,��
2021/09/30,14:20,0.604,0.897,0.572,1.098,0.785,0.366,0.632,0.589,��,9.3,��
2021/09/30,14:30,0.602,0.896,0.573,1.094,0.784,0.366,0.633,0.589,��,10.7,��
2021/09/30,14:40,0.602,0.894,0.574,1.097,0.784,0.366,0.632,0.589,��,10.9,��
2021/09/30,14:50,0.602,0.897,0.574,1.096,0.784,0.367,0.633,0.589,��,9.3,��
2021/09/30,15:00,0.602,0.895,0.573,1.098,0.789,0.366,0.633,0.589,��,10.0,��
2021/09/30,15:10,0.603,0.895,0.574,1.098,0.784,0.367,0.630,0.589,��,9.8,��
2021/09/30,15:20,0.603,0.896,0.572,1.095,0.786,0.367,0.632,0.590,��,9.6,��
2021/09/30,15:30,0.601,0.896,0.570,1.095,0.785,0.367,0.631,0.590,��,9.4,��
2021/09/30,15:40,0.603,0.896,0.572,1.097,0.785,0.368,0.631,0.588,��,10.7,��
2021/09/30,15:50,0.602,0.897,0.572,1.097,0.786,0.367,0.631,0.588,��,9.4,��
2021/09/30,16:00,0.601,0.898,0.571,1.096,0.786,0.368,0.630,0.589,��,10.6,��
2021/09/30,16:10,0.602,0.897,0.573,1.098,0.783,0.368,0.631,0.588,��,9.7,��
2021/09/30,16:20,0.603,0.899,0.572,1.097,0.786,0.368,0.631,0.588,��,9.1,��
2021/09/30,16:30,0.603,0.899,0.571,1.099,0.787,0.368,0.631,0.589,��,9.0,��
2021/09/30,16:40,0.602,0.899,0.572,1.098,0.786,0.367,0.632,0.589,��,6.7,��
2021/09/30,16:50,0.601,0.900,0.573,1.100,0.786,0.367,0.632,0.592,��,8.5,��
2021/09/30,17:00,0.602,0.900,0.573,1.097,0.786,0.368,0.633,0.591,��,9.2,��
2021/09/30,17:10,0.603,0.900,0.574,1.098,0.787,0.366,0.633,0.590,��,9.7,��
2021/09/30,17:20,0.603,0.900,0.573,1.098,0.787,0.367,0.636,0.592,��,9.7,��
2021/09/30,17:30,0.602,0.902,0.573,1.099,0.786,0.369,0.633,0.591,��,9.5,��
2021/09/30,17:40,0.602,0.899,0.573,1.098,0.785,0.366,0.633,0.591,��,8.6,��
2021/09/30,17:50,0.602,0.901,0.573,1.098,0.787,0.366,0.634,0.592,��,7.8,��
2021/09/30,18:00,0.602,0.900,0.573,1.098,0.786,0.366,0.631,0.591,��,7.2,��
2021/09/30,18:10,0.602,0.900,0.573,1.098,0.785,0.366,0.634,0.592,��,8.2,��
2021/09/30,18:20,0.603,0.900,0.575,1.098,0.787,0.366,0.634,0.590,��,6.8,��
2021/09/30,18:30,0.601,0.900,0.574,1.098,0.786,0.366,0.634,0.591,��,6.9,��
2021/09/30,18:40,0.603,0.898,0.576,1.100,0.787,0.366,0.634,0.592,��,7.3,��
2021/09/30,18:50,0.604,0.900,0.575,1.099,0.786,0.366,0.633,0.590,��,7.5,��
2021/09/30,19:00,0.602,0.899,0.575,1.099,0.787,0.368,0.633,0.592,��,7.0,��
2021/09/30,19:10,0.601,0.902,0.574,1.097,0.786,0.366,0.632,0.591,��,7.3,��
2021/09/30,19:20,0.604,0.902,0.574,1.100,0.787,0.366,0.633,0.592,��,5.5,��
2021/09/30,19:30,0.602,0.901,0.574,1.098,0.787,0.366,0.633,0.593,��,6.1,��
2021/09/30,19:40,0.604,0.900,0.574,1.099,0.788,0.365,0.633,0.592,��쐼,7.7,��
2021/09/30,19:50,0.603,0.904,0.576,1.098,0.787,0.365,0.633,0.591,��,7.5,��
2021/09/30,20:00,0.603,0.900,0.576,1.099,0.787,0.364,0.632,0.591,��,7.1,��
2021/09/30,20:10,0.604,0.898,0.575,1.098,0.787,0.366,0.633,0.591,��,5.8,��
2021/09/30,20:20,0.601,0.899,0.575,1.100,0.788,0.364,0.632,0.592,��,5.8,�L
2021/09/30,20:30,0.602,0.900,0.574,1.095,0.788,0.365,0.634,0.591,��,6.4,�L
2021/09/30,20:40,0.604,0.902,0.574,1.097,0.788,0.366,0.634,0.590,��,6.2,�L
2021/09/30,20:50,0.602,0.902,0.573,1.099,0.787,0.363,0.630,0.591,��,6.7,��
2021/09/30,21:00,0.602,0.901,0.573,1.099,0.787,0.365,0.633,0.590,��,6.7,��
2021/09/30,21:10,0.601,0.903,0.574,1.100,0.785,0.365,0.633,0.591,��,7.9,�L
2021/09/30,21:20,0.603,0.901,0.577,1.098,0.786,0.366,0.632,0.592,��,7.9,�L
2021/09/30,21:30,0.603,0.900,0.575,1.099,0.788,0.366,0.631,0.590,��,7.6,�L
2021/09/30,21:40,0.602,0.898,0.575,1.098,0.787,0.365,0.633,0.591,��,7.1,�L
2021/09/30,21:50,0.604,0.900,0.573,1.098,0.787,0.364,0.633,0.592,��,6.5,�L
2021/09/30,22:00,0.602,0.900,0.574,1.099,0.788,0.364,0.632,0.591,��,6.7,�L
2021/09/30,22:10,0.603,0.900,0.574,1.100,0.789,0.364,0.634,0.593,��,7.4,�L
2021/09/30,22:20,0.603,0.900,0.573,1.099,0.787,0.365,0.633,0.592,��,7.2,�L
2021/09/30,22:30,0.602,0.901,0.574,1.100,0.786,0.364,0.633,0.590,��,8.4,�L
2021/09/30,22:40,0.601,0.901,0.575,1.100,0.787,0.365,0.634,0.590,��,8.7,�L
2021/09/30,22:50,0.603,0.901,0.574,1.099,0.788,0.364,0.632,0.592,��,8.0,��
2021/09/30,23:00,0.603,0.902,0.575,1.099,0.787,0.364,0.633,0.592,��,8.4,��
2021/09/30,23:10,0.604,0.901,0.575,1.099,0.788,0.365,0.634,0.591,��,8.7,��
2021/09/30,23:20,0.602,0.901,0.575,1.098,0.788,0.364,0.633,0.591,��,8.0,��
2021/09/30,23:30,0.602,0.902,0.575,1.099,0.788,0.364,0.633,0.592,��,7.3,��
2021/09/30,23:40,0.602,0.902,0.574,1.101,0.787,0.365,0.633,0.591,��,6.8,��
2021/09/30,23:50,0.604,0.902,0.575,1.100,0.787,0.364,0.634,0.590,��,8.1,��
